Regional Weather Roundup
Issued by NWS

Home | Current Version | Previous Version | Text Only | Print | Product List | Glossary On
Versions: 1 2 3 4 5 6 7 8 9 10 11 12 13 14 15 16 17 18 19 20 21 22 23 24 25 26 27 28 29 30 31 32 33 34 35 36 37 38 39 40 41 42 43 44 45 46 47 48 49 50
000
ASUS44 KBMX 280010
RWRAL

ALABAMA REGIONAL WEATHER ROUNDUP
NATIONAL WEATHER SERVICE BIRMINGHAM AL
700 PM CDT FRI MAR 27 2015

NOTE: "FAIR" INDICATES FEW OR NO CLOUDS BELOW 12,000 FEET
WITH NO SIGNIFICANT WEATHER AND/OR OBSTRUCTIONS TO VISIBILITY.

THE REMARK "TC" DENOTES TEMPERATURE IN DEGREES CELSIUS.

ALZ001>011-014-016>018-020-280100-
NORTH ALABAMA

CITY           SKY/WX    TMP DP  RH WIND       PRES   REMARKS
MUSCLE SHOALS  PTCLDY    43  35  73 NW5       30.07R
6HR MIN TEMP:  42; 6HR MAX TEMP:  53; 6HR PCP: TRACE;

HUNTSVILLE     MOCLDY    42  37  82 NW8       30.04R
6HR MIN TEMP:  42; 6HR MAX TEMP:  55; 6HR PCP:  0.07;

DECATUR        CLOUDY    42  36  79 NW6       30.05R
6HR MIN TEMP:  41; 6HR MAX TEMP:  53; 6HR PCP:  0.01;

HALEYVILLE     MOCLDY    40  35  82 N6        30.08R
6HR MIN TEMP:  40; 6HR MAX TEMP:  50; 6HR PCP: TRACE;

GADSDEN        PTCLDY    46  30  53 NW6       29.98R
$$

ALZ012-013-022-023-030>036-040>044-280100-
WEST CENTRAL ALABAMA

CITY           SKY/WX    TMP DP  RH WIND       PRES   REMARKS
TUSCALOOSA     LGT RAIN  50  34  54 NW13G21   30.07R
6HR MIN TEMP:  50; 6HR MAX TEMP:  60; 6HR PCP: TRACE;

$$

ALZ015-024>027-033>036-040>044-280100-
CENTRAL ALABAMA

CITY           SKY/WX    TMP DP  RH WIND       PRES   REMARKS
BIRMINGHAM     LGT RAIN  49  32  52 NW12G21   30.03R
6HR MIN TEMP:  49; 6HR MAX TEMP:  59; 6HR PCP: TRACE;

MONTGOMERY     CLOUDY    56  32  40 NW20G29   30.00R
6HR MIN TEMP:  56; 6HR MAX TEMP:  64;

SHELBY CO ARPT MOCLDY    51  31  46 NW10      30.02R
6HR MIN TEMP:  51; 6HR MAX TEMP:  59;

MAXWELL AFB    PTCLDY    55  33  44 NW14G24   29.99R
6HR MIN TEMP:  55; 6HR MAX TEMP:  63;

GREENVILLE     FAIR      55  32  41 NW10G22   29.99R
6HR MIN TEMP:  55; 6HR MAX TEMP:  63;

$$

ALZ019-021-028-029-037-038-045>048-280100-
EAST CENTRAL ALABAMA

CITY           SKY/WX    TMP DP  RH WIND       PRES   REMARKS
ANNISTON       PTCLDY    50  29  44 NW9       29.98R
6HR MIN TEMP:  50; 6HR MAX TEMP:  59;

ALEXANDER CITY PTCLDY    54  29  37 NW14G22   29.98R
6HR MIN TEMP:  54; 6HR MAX TEMP:  62;

AUBURN         PTCLDY    52  27  37 NW13G22   29.96R
6HR MIN TEMP:  52; 6HR MAX TEMP:  59;

$$

ALZ051>064-280100-
SOUTHWEST ALABAMA

CITY           SKY/WX    TMP DP  RH WIND       PRES   REMARKS
MOBILE         PTCLDY    61  33  35 NW16G23   30.02R
6HR MIN TEMP:  61; 6HR MAX TEMP:  68;

BROOKLEY FIELD CLEAR     62  33  33 NW23G29   30.02R
6HR MIN TEMP:  62; 6HR MAX TEMP:  69;

EVERGREEN      MOCLDY    56  32  40 NW9G21    30.00R
6HR MIN TEMP:  56; 6HR MAX TEMP:  65;

$$

ALZ049-050-065>069-280100-
SOUTHEAST ALABAMA

CITY           SKY/WX    TMP DP  RH WIND       PRES   REMARKS
DOTHAN         CLEAR     59  29  31 NW23G31   29.95R
6HR MIN TEMP:  57; 6HR MAX TEMP:  65;

OZARK          CLEAR     59  26  28 NW14G23   29.94R
6HR MIN TEMP:  58; 6HR MAX TEMP:  66;

TROY           MOCLDY    58  31  35 NW14G21   29.97R
6HR MIN TEMP:  58; 6HR MAX TEMP:  64;

EUFAULA        FAIR      58  29  33 NW9       29.90R
6HR MIN TEMP:  58; 6HR MAX TEMP:  66;

$$



USA.gov is the U.S. government's official web portal to all federal, state and local government web resources and services.